Flag for Japan Weather past 2 weeks in Utsunomiya, Japan

Now
74 °F

Passing clouds.


Feels Like: 77 °F
Forecast: 56 / 71 °F
Wind: 7 mph from East

Location: Mito

Current Time: Sep 23, 2014 at 3:56:27 PM

Latest Report: Sep 23, 2014 at 3:00 PM


Visibility: 19 mi

Pressure: 30.12 "Hg

Humidity: 43%

Dew point: 50 °F

Location of UtsunomiyaLocation

Historic Weather in Utsunomiya — Graph

°F

Utsunomiya temperature yesterday

Maximum temperature yesterday: 75 °F (at 11:00 AM)
Minimum temperature yesterday: 59 °F (at 6:00 AM)
Average temperature yesterday: 66 °F

Past Weeks' High & Low Weather Summary

 TemperatureHumidityPressure
High82 °F (Sep 16, 1:00 PM)97% (Sep 12, 12:00 AM)30.21 "Hg (Sep 12, 12:00 AM)
Low52 °F (Sep 19, 5:00 AM)39% (Sep 19, 11:00 AM)29.65 "Hg (Sep 9, 3:00 PM)
Average68 °F77%29.91 "Hg
* Reported Sep 8 2:00 PM — Sep 23 2:00 PM, Utsunomiya, Weather by CustomWeather, © 2014

Note: Actual official high and low records may vary slightly from our data, if they occured in-between our weather recording intervals... More about our weather records

Advertising

Utsunomiya weather history for previous 24 hours

 ConditionsComfort  
Time TempWeatherWind HumidityBarometerVisibility
2:00 PM
Sep 23
75 °FMild.8 mph44%30.12 "HgN/A
1:00 PM76 °FMild.6 mph43%30.14 "HgN/A
12:00 PM74 °FMild.7 mph45%30.16 "HgN/A
11:00 AM74 °FMild.2 mph42%30.17 "HgN/A
10:00 AM73 °FMild.3 mph45%30.19 "HgN/A
9:00 AM69 °FPassing clouds.2 mph59%30.21 "Hg19 mi
8:00 AM64 °FMild.3 mph73%30.19 "HgN/A
7:00 AM59 °FCool.3 mph81%30.19 "HgN/A
6:00 AM55 °FCool.2 mph93%30.19 "HgN/A
5:00 AM58 °FCool.3 mph81%30.17 "HgN/A
4:00 AM56 °FCool.2 mph94%30.13 "HgN/A
3:00 AM57 °FPassing clouds.2 mph91%30.15 "Hg19 mi
2:00 AM59 °FCool.3 mph84%30.14 "HgN/A
1:00 AM59 °FCool.2 mph87%30.13 "HgN/A
12:00 AM59 °FCool.2 mph95%30.12 "HgN/A
11:00 PM
Sep 22
62 °FCool.2 mph94%30.11 "HgN/A
10:00 PM61 °FCool.3 mph93%30.12 "HgN/A
9:00 PM64 °FPassing clouds.3 mph84%30.11 "Hg12 mi
8:00 PM66 °FMild.3 mph77%30.10 "HgN/A
7:00 PM67 °FMild.3 mph75%30.07 "HgN/A
6:00 PM69 °FMild.5 mph70%30.05 "HgN/A
5:00 PM70 °FMild.6 mph67%30.04 "HgN/A
4:00 PM70 °FMild.7 mph69%30.03 "HgN/A
3:00 PM72 °FOvercast.8 mph61%30.02 "Hg16 mi
Weather by CustomWeather, © 2014

See weather overviewHow to use our weather pages